Terminal Aerodrome Forecast
Issued by NWS Raleigh/Durham, NC

Home | Current Version | Previous Version | Text Only | Print | Product List | Glossary On
Versions: 1 2 3 4 5 6 7 8 9 10 11 12 13 14 15 16 17 18 19 20 21 22 23 24 25 26 27 28 29 30 31 32 33 34 35 36 37 38 39 40 41 42 43 44 45 46 47 48 49 50
000
FTUS42 KRAH 241239 AAA
TAFRDU
TAF AMD
KRDU 241239Z 2413/2512 25007KT P6SM VCSH SCT010 OVC035
      TEMPO 2413/2416 5SM -SHRA BR BKN010 OVC035
     FM250400 VRB05KT P6SM BKN035=

USA.gov is the U.S. government's official web portal to all federal, state and local government web resources and services.